Location: R�serve Fauniques des Laurentides
(47.3100°N, 71.1900°W)
Time: 20:17:00
(UTC-04:00)

Cosmos 1674 - Visible Passes

Search period start: 26 April 2015 00:00
Search period end: 06 May 2015 00:00
Orbit: 508 x 533 km, 82.5° (Epoch: 26 April)

Date Brightness Start Highest point End Pass type
(mag) Time Alt. Az. Time Alt. Az. Time Alt. Az.
26 Apr 5.4 04:58:01 10° SE 05:01:01 23° E 05:04:07 10° NE visible
27 Apr 5.6 04:44:41 10° SE 04:47:27 20° E 04:50:21 10° NE visible
28 Apr 5.6 04:31:24 10° SE 04:33:54 17° E 04:36:33 10° NE visible
29 Apr 5.7 04:18:10 10° ESE 04:20:21 15° E 04:22:42 10° NE visible
30 Apr 5.7 04:05:01 10° ESE 04:06:47 13° E 04:08:45 10° NE visible
01 May 5.9 03:52:01 10° ESE 03:53:13 11° E 03:54:38 10° ENE visible
04 May 2.8 04:43:48 10° S 04:47:39 84° ESE 04:51:34 10° N visible
05 May 3.0 04:30:11 10° S 04:34:00 72° E 04:37:54 10° NNE visible
